Fountain Dale, PA

8:23 PM EDT on April 25, 2017 (GMT -0400)
Fountain Dale

Weather History for KRYT - April, 2014

Change the Weather History Date:

Friday, April 18, 2014

  Actual Average (KHGR) Record (KHGR)
Temperature  
Mean Temperature 42 °F -  
Max Temperature 53 °F 61 °F 86 °F (2002)
Min Temperature 32 °F 41 °F 33 °F (2001)
Degree Days  
Heating Degree Days 22    
Moisture  
Dew Point 31 °F    
Average Humidity 69    
Maximum Humidity 85    
Minimum Humidity 48    
Precipitation  
Precipitation 0.00 in - - ()
Sea Level Pressure  
Sea Level Pressure 30.43 in    
Wind  
Wind Speed 1 mph (NE)    
Max Wind Speed 9 mph    
Max Gust Speed -    
Visibility 10 miles    
Events      
Averages and records for this station are not official NWS values.
T = Trace of Precipitation, MM = Missing Value Source: NWS Daily Summary

Daily Weather History Graph

Daily Weather History Graph

Search for Another Location

Airport or City:

Trip Planner

Search our weather history database for the weather conditions in past years. The results will help you decide how hot, cold, wet, or windy it might be!

Date:

Astronomy

Apr. 18, 2014 Rise Set
Actual Time 6:27 AM EDT 7:50 PM EDT
Civil Twilight 5:59 AM EDT 8:19 PM EDT
Nautical Twilight 5:26 AM EDT 8:52 PM EDT
Astronomical Twilight 4:50 AM EDT 9:28 PM EDT
Moon 11:33 PM EDT (4/18) 8:48 AM EDT (4/18)
Length of Visible Light 14h 19m
Length of Day
13h 23m
Waning Gibbous, 87% of the Moon is Illuminated
Apr 18
Waning Gibbous
Apr 22
Last Quarter
Apr 29
New
May 6
First Quarter
May 14
Full

Hourly Weather History & Observations

Time (EDT) Temp. Windchill Dew Point Humidity Pressure Visibility Wind Dir Wind Speed Gust Speed Precip Events Conditions
12:02 AM 39.2 °F - 30.2 °F 70% 30.56 in 10.0 mi Calm Calm - N/A   Mostly Cloudy
12:53 AM 39.0 °F - 30.0 °F 70% 30.56 in 10.0 mi Calm Calm - N/A   Mostly Cloudy
1:16 AM 37.4 °F - 30.2 °F 75% 30.51 in 10.0 mi Calm Calm - N/A   Scattered Clouds
1:28 AM 37.4 °F - 30.2 °F 75% 30.51 in 10.0 mi Calm Calm - N/A   Mostly Cloudy
1:53 AM 37.9 °F - 30.9 °F 76% 30.52 in 10.0 mi Calm Calm - N/A   Overcast
2:13 AM 37.4 °F - 30.2 °F 75% 30.49 in 10.0 mi Calm Calm - N/A   Scattered Clouds
2:53 AM 36.0 °F - 30.0 °F 79% 30.50 in 10.0 mi Calm Calm - N/A   Clear
3:53 AM 34.0 °F - 28.0 °F 79% 30.49 in 10.0 mi Calm Calm - N/A   Clear
4:53 AM 33.1 °F - 28.0 °F 82% 30.49 in 10.0 mi Calm Calm - N/A   Partly Cloudy
5:05 AM 33.8 °F - 28.4 °F 81% 30.46 in 10.0 mi Calm Calm - N/A   Mostly Cloudy
5:53 AM 32.0 °F - 28.0 °F 85% 30.50 in 8.0 mi Calm Calm - N/A   Overcast
6:53 AM 32.0 °F - 28.0 °F 85% 30.50 in 9.0 mi Calm Calm - N/A   Overcast
7:53 AM 34.0 °F - 30.0 °F 85% 30.50 in 10.0 mi Calm Calm - N/A   Overcast
8:05 AM 35.6 °F - 28.4 °F 75% 30.46 in 10.0 mi Calm Calm - N/A   Overcast
8:53 AM 36.0 °F 32.1 °F 28.9 °F 76% 30.48 in 10.0 mi NNE 4.6 mph - N/A   Overcast
9:10 AM 35.6 °F 31.7 °F 28.4 °F 75% 30.45 in 10.0 mi Variable 4.6 mph - N/A   Overcast
9:53 AM 37.0 °F 34.5 °F 28.9 °F 73% 30.48 in 10.0 mi NE 3.5 mph - N/A   Mostly Cloudy
10:53 AM 39.9 °F 37.8 °F 30.0 °F 68% 30.48 in 10.0 mi ENE 3.5 mph - N/A   Mostly Cloudy
11:03 AM 39.2 °F 37.0 °F 30.2 °F 70% 30.44 in 10.0 mi NNE 3.5 mph - N/A   Scattered Clouds
11:53 AM 42.1 °F 37.7 °F 30.0 °F 62% 30.46 in 10.0 mi NNE 6.9 mph - N/A   Clear
12:53 PM 45.0 °F 40.6 °F 30.9 °F 58% 30.42 in 10.0 mi North 8.1 mph - N/A   Clear
1:53 PM 48.0 °F - 32.0 °F 54% 30.39 in 10.0 mi NE 9.2 mph - N/A   Clear
2:53 PM 50.0 °F - 32.0 °F 50% 30.37 in 10.0 mi NNE 8.1 mph - N/A   Clear
3:53 PM 53.1 °F - 34.0 °F 48% 30.33 in 10.0 mi NE 6.9 mph - N/A   Clear
4:53 PM 52.0 °F - 34.0 °F 50% 30.32 in 10.0 mi Variable 3.5 mph - N/A   Clear
5:53 PM 52.0 °F - 33.1 °F 49% 30.30 in 10.0 mi Variable 3.5 mph - N/A   Clear
6:53 PM 51.1 °F - 33.1 °F 50% 30.28 in 10.0 mi Calm Calm - N/A   Clear
7:53 PM 50.0 °F - 33.1 °F 52% 30.28 in 10.0 mi Calm Calm - N/A   Clear
8:53 PM 46.9 °F - 34.0 °F 61% 30.30 in 10.0 mi Calm Calm - N/A   Clear
9:53 PM 45.0 °F - 35.1 °F 68% 30.31 in 10.0 mi Calm Calm - N/A   Clear
10:53 PM 44.1 °F - 35.1 °F 71% 30.29 in 10.0 mi Calm Calm - N/A   Clear
11:53 PM 44.1 °F - 33.1 °F 65% 30.27 in 10.0 mi Calm Calm - N/A   Clear